Location: Unspecified
(0.0000°N, 0.0000°E)
Time: 10:42:22
(UTC+00:00)

Envisat - Pass Details

Date: 31 January 2021
Orbit: 764 x 766 km, 98.1° (Epoch: 27 February)

Event Time Altitude Azimuth Distance (km) Brightness Sun altitude
Rises 18:35:35 0° 209° (SSW) 3,230 7.0 -5.3°
Reaches altitude 10° 18:40:47 10° 255° (WSW) 2,300 7.3 -6.5°
Maximum altitude 18:41:00 10° 257° (WSW) 2,298 7.3 -6.6°
Drops below altitude 10° 18:41:12 10° 259° (W) 2,299 7.3 -6.6°
Sets 18:46:28 0° 306° (NW) 3,220 6.8 -7.9°
